NWS Melbourne » East Central Florida Hourly Weather Roundup

MIARWRMLB 000
TTAA00 KMLB 220111
HOURLY WEATHER ROUNDUP AROUND FLORIDA
NATIONAL WEATHER SERVICE OFFICE MELBOURNE FL
900 PM EDT TUE OCT 21 2014
  
CITY           SKY/WX    TMP DP  RH WIND       PRES   REMARKS
MELBOURNE      CLOUDY    74  70  87 CALM      29.93S                  
FORT PIERCE    CLOUDY    69  67  93 CALM      29.94R                  
ORLANDO INTL   CLOUDY    76  70  82 CALM      29.94S                  
DAYTONA BEACH  CLOUDY    72  69  90 CALM      29.94S                  
VERO BEACH     CLOUDY    68  67  96 SW3       29.94R                  
$$
...ELSEWHERE ACROSS CENTRAL FLORIDA...
  
CITY           SKY/WX    TMP DP  RH WIND       PRES   REMARKS
PATRICK AFB    CLOUDY    75  71  86 SW8       29.93S                  
JFK SPACE CTR  CLOUDY    73  71  91 SW3       29.94R                  
CAPE CANAVERAL CLOUDY    74  70  86 SW6       29.93S                  
TITUSVILLE     PTCLDY    75  70  83 VRB6      29.94S                  
ORLANDO EXEC   CLOUDY    76  72  87 NE5       29.94S                  
LEESBURG       MOCLDY    72  67  84 CALM      29.95S                  
SANFORD        MOCLDY    74  70  87 NE3       29.95R                  
WINTER HAVEN   CLOUDY    74  68  81 N6        29.95S                  
KISSIMMEE      CLEAR     75  72  88 CALM      29.95R                  
OKEECHOBEE       N/A     68  68 100 MISG        N/A                   
TAMPA          CLOUDY    75  63  66 N3        29.95R                  
$$
...NORTHERN FLORIDA...
  
CITY           SKY/WX    TMP DP  RH WIND       PRES   REMARKS
DELAND         MOCLDY    72  68  88 CALM      29.96S                  
PALM COAST       N/A     69  67  94 CALM      29.94S                  
ST AUGUSTINE   CLEAR     71  67  87 CALM      29.95R                  
OCALA          MOCLDY    66  63  88 CALM      29.96R                  
GAINESVILLE    CLEAR     67  64  90 CALM      29.95R                  
JACKSONVILLE   CLEAR     67  64  90 CALM      29.94R                  
TALLAHASSEE    PTCLDY    64  54  69 CALM      29.96R                  
$$
...ALONG THE SOUTHEAST COAST TO THE KEYS...
  
CITY           SKY/WX    TMP DP  RH WIND       PRES   REMARKS
STUART         CLOUDY    70  68  94 S3        29.96R                  
WEST PALM BCH  CLOUDY    71  71 100 SW6       29.94R                  
MIAMI          CLOUDY    76  69  79 CALM      29.97R                  
KEY WEST       CLOUDY    76  75  97 N3        29.96R                  
$$
...MARINE REPORTS...
  
STATION/POSITION TIME  TEMP    WIND        PRES    WAVE   SWELL
                       AIR SEA DIR/SP/G            HT/PER HT/PER/DIR
                 (UTC) (F)     (DEG/KT/KT) (MB)    (FT/S) (FT/S/D)
ST AUGUSTINE FP  0100   74     230/  3/  3 1014.6R
20NM E CAPE CANA 0100   78 83  200/ 14/ 17 1013.7R   3/10   2/ 60/10
120 E NEW SMYRNA 0100   76 80  180/  8/ 10 1014.2R   2/ 9   2/ 70/ 9
TRIDENT PIER     0100   76 81  200/  9/ 12 1013.3R
SEBASTIAN INLET  0100   72     220/  4     1014.0S
4NM E PORT CANAV 0100      80                N/A     2/ 3
6NM NE FPR INLET 0100      80                N/A     2/ 9   2/ 50/12
SETTLEMENT PT GB 0100   76     170/  8/ 11 1014.4S
$$
  
 


USA.gov is the U.S. government's official web portal to all federal, state and local government web resources and services.